FW8531 Weather Reports


Display with metric or nautical units.
time (UTC)temp
F
wind
direction
speed
MPH
gust
MPH
rain 1hr
in
rain 24hr
in
rain mn
in
humidity
%
barometer
mb
20260503211509 53 191 2.0 8.0 0.00 0.28 0.05 49 1005.7
20260503210012 53 290 1.0 11.0 0.00 0.28 0.05 49 1005.5
20260503204519 54 32 2.0 10.0 0.00 0.28 0.05 52 1005.3
20260503203031 53 249 1.0 6.0 0.00 0.28 0.05 53 1005.1
20260503201524 53 15 4.0 11.0 0.00 0.28 0.05 53 1005.1
20260503200012 51 253 2.0 11.0 0.00 0.28 0.05 62 1005.2
20260503194517 50 233 0.0 5.0 0.00 0.28 0.05 70 1005.3
20260503193021 49 5 0.0 5.0 0.00 0.28 0.05 73 1005.4
20260503191524 50 271 2.0 9.0 0.00 0.28 0.05 64 1005.5
20260503190026 51 337 1.0 8.0 0.00 0.28 0.05 63 1005.4
20260503184517 50 316 3.0 7.0 0.00 0.28 0.05 64 1005.6
20260503183024 48 41 3.0 6.0 0.00 0.28 0.05 67 1005.6
20260503181524 48 23 3.0 9.0 0.00 0.28 0.05 69 1005.5
20260503180023 48 312 2.0 7.0 0.00 0.28 0.05 73 1005.4
20260503174509 46 217 1.0 4.0 0.00 0.28 0.05 83 1005.4
20260503173013 45 30 1.0 6.0 0.00 0.28 0.05 85 1005.3
20260503171520 45 272 2.0 9.0 0.00 0.28 0.05 83 1005.3
20260503081515 45 335 0.0 2.0 0.01 0.27 0.04 96 1006.6
20260503071506 46 347 1.0 4.0 0.00 0.26 0.03 96 1007.1
20260503054509 47 216 0.0 1.0 0.01 0.25 0.02 96 1008.3
20260503053004 47 216 0.0 1.0 0.01 0.25 0.02 96 1008.3
20260503051503 47 210 0.0 0.0 0.01 0.25 0.02 96 1008.3
20260503050002 47 210 0.0 0.0 0.02 0.25 0.02 96 1008.6
20260503044508 47 202 0.0 0.0 0.02 0.24 0.01 96 1009.2
20260503043002 47 165 0.0 0.0 0.03 0.24 0.01 96 1009.3
20260503041502 47 152 0.0 0.0 0.04 0.24 0.01 96 1009.5
20260503040003 47 152 0.0 0.0 0.03 0.23 0.00 96 1009.5
20260503034503 48 151 0.0 0.0 0.03 0.22 0.22 96 1009.5
20260503033002 48 151 0.0 0.0 0.03 0.21 0.21 95 1009.4
20260503031503 48 134 0.0 1.0 0.04 0.20 0.20 95 1009.7
20260503030006 48 127 0.0 1.0 0.06 0.20 0.20 95 1009.9
20260503024502 48 126 0.0 0.0 0.08 0.19 0.19 95 1010.0
20260503023002 48 163 0.0 0.0 0.08 0.18 0.18 95 1010.2
20260503021502 48 143 0.0 1.0 0.07 0.16 0.16 95 1010.2
20260503020007 48 130 0.0 1.0 0.07 0.14 0.14 95 1010.3
20260503014505 48 146 0.0 1.0 0.05 0.11 0.11 95 1010.3
20260503013003 48 146 0.0 0.0 0.05 0.10 0.10 95 1010.6
20260503011503 48 146 0.0 0.0 0.04 0.09 0.09 95 1010.9
20260503010005 48 155 0.0 0.0 0.03 0.07 0.07 95 1010.7
20260503004504 48 155 0.0 0.0 0.02 0.06 0.06 95 1010.6
20260503003007 48 155 0.0 0.0 0.02 0.05 0.05 94 1010.8
20260503001503 48 155 0.0 0.0 0.04 0.05 0.05 94 1010.7
20260503000006 48 152 0.0 1.0 0.04 0.04 0.04 94 1010.8
20260502234508 49 142 0.0 1.0 0.04 0.04 0.04 93 1010.6
20260502233006 50 144 0.0 3.0 0.03 0.03 0.03 89 1010.5
20260502230012 51 203 0.0 2.0 0.00 0.00 0.00 83 1010.5
20260502224507 51 185 0.0 3.0 0.00 0.00 0.00 82 1010.3
20260502223024 51 127 1.0 7.0 0.00 0.00 0.00 81 1010.2
20260502220010 52 147 0.0 4.0 0.00 0.00 0.00 80 1010.2
20260502214513 52 221 0.0 4.0 0.00 0.00 0.00 79 1010.3
20260502213011 53 176 0.0 4.0 0.00 0.00 0.00 79 1010.4